FW3902 Weather Reports


time (UTC)temp
C
wind
direction
speed
KPH
gust
KPH
rain 1hr
cm
rain 24hr
cm
rain mn
cm
humidity
%
barometer
mb
20260906121503 14 82 0.0 3.2 0.00 0.00 0.00 89 1021.3
20260906121024 14 82 0.0 1.6 0.00 0.00 0.00 89 1021.3
20260906120503 13 82 0.0 1.6 0.00 0.00 0.00 88 1021.3
20260906120003 13 82 0.0 1.6 0.00 0.00 0.00 88 1021.1
20260906115503 13 82 0.0 1.6 0.00 0.00 0.00 88 1021.0
20260906115024 13 0 0.0 0.0 0.00 0.00 0.00 88 1021.0
20260906114503 13 0 0.0 0.0 0.00 0.00 0.00 88 1020.9
20260906114003 13 0 0.0 0.0 0.00 0.00 0.00 88 1020.8
20260906113503 13 0 0.0 0.0 0.00 0.00 0.00 88 1020.8
20260906113003 13 0 0.0 0.0 0.00 0.00 0.00 88 1020.8
20260906112503 13 0 0.0 0.0 0.00 0.00 0.00 87 1020.9
20260906112024 13 0 0.0 0.0 0.00 0.00 0.00 87 1020.8
20260906111524 13 0 0.0 0.0 0.00 0.00 0.00 87 1020.7
20260906111003 13 0 0.0 0.0 0.00 0.00 0.00 87 1020.6
20260906110503 14 0 0.0 0.0 0.00 0.00 0.00 87 1020.6
20260906110003 14 0 0.0 0.0 0.00 0.00 0.00 87 1020.6
20260906105503 13 0 0.0 0.0 0.00 0.00 0.00 87 1020.6
20260906105003 14 0 0.0 0.0 0.00 0.00 0.00 87 1020.6
20260906104524 13 0 0.0 0.0 0.00 0.00 0.00 87 1020.6
20260906104003 14 0 0.0 0.0 0.00 0.00 0.00 87 1020.5
20260906103503 13 0 0.0 0.0 0.00 0.00 0.00 86 1020.5
20260906103003 13 0 0.0 0.0 0.00 0.00 0.00 86 1020.8
20260906102503 13 0 0.0 0.0 0.00 0.00 0.00 86 1020.8
20260906102003 13 0 0.0 0.0 0.00 0.00 0.00 86 1020.7
20260906101503 13 0 0.0 0.0 0.00 0.00 0.00 85 1020.6
20260906101003 14 0 0.0 0.0 0.00 0.00 0.00 85 1020.6
20260906100524 14 0 0.0 0.0 0.00 0.00 0.00 85 1020.6
20260906100003 14 0 0.0 0.0 0.00 0.00 0.00 84 1020.4
20260906095524 14 0 0.0 0.0 0.00 0.00 0.00 84 1020.3
20260906095024 14 0 0.0 0.0 0.00 0.00 0.00 84 1020.5
20260906094503 14 0 0.0 0.0 0.00 0.00 0.00 84 1020.5
20260906094003 14 0 0.0 0.0 0.00 0.00 0.00 84 1020.5
20260906093503 14 0 0.0 0.0 0.00 0.00 0.00 84 1020.5
20260906093024 14 0 0.0 0.0 0.00 0.00 0.00 84 1020.4
20260906092503 15 0 0.0 0.0 0.00 0.00 0.00 84 1020.4
20260906092003 15 0 0.0 0.0 0.00 0.00 0.00 83 1020.5
20260906091503 15 0 0.0 0.0 0.00 0.00 0.00 83 1020.5
20260906091003 15 0 0.0 0.0 0.00 0.00 0.00 83 1020.5
20260906090503 15 0 0.0 0.0 0.00 0.00 0.00 83 1020.5
20260906090003 15 0 0.0 0.0 0.00 0.00 0.00 83 1020.3
20260906085503 15 0 0.0 0.0 0.00 0.00 0.00 83 1020.2
20260906085003 15 0 0.0 0.0 0.00 0.00 0.00 83 1020.1
20260906084503 15 0 0.0 0.0 0.00 0.00 0.00 83 1019.9
20260906084003 15 0 0.0 0.0 0.00 0.00 0.00 82 1020.0
20260906083503 15 0 0.0 0.0 0.00 0.00 0.00 82 1019.9
20260906083003 15 0 0.0 0.0 0.00 0.00 0.00 82 1019.9
20260906082524 15 0 0.0 0.0 0.00 0.00 0.00 82 1019.8
20260906082003 15 0 0.0 0.0 0.00 0.00 0.00 82 1019.7
20260906081503 15 0 0.0 0.0 0.00 0.00 0.00 82 1019.7
20260906081003 15 0 0.0 0.0 0.00 0.00 0.00 82 1019.6
20260906080524 16 0 0.0 0.0 0.00 0.00 0.00 82 1019.7
20260906080024 16 0 0.0 0.0 0.00 0.00 0.00 82 1019.5
20260906075503 16 0 0.0 0.0 0.00 0.00 0.00 81 1019.6
20260906075003 16 82 0.0 3.2 0.00 0.00 0.00 81 1019.6
20260906074503 16 82 0.0 3.2 0.00 0.00 0.00 81 1019.5
20260906074003 16 79 0.0 1.6 0.00 0.00 0.00 81 1019.6
20260906073503 16 0 0.0 0.0 0.00 0.00 0.00 81 1019.5
20260906073024 16 0 0.0 0.0 0.00 0.00 0.00 80 1019.5
20260906072503 16 0 0.0 0.0 0.00 0.00 0.00 80 1019.5
20260906072003 16 0 0.0 0.0 0.00 0.00 0.00 80 1019.5
20260906071503 16 0 0.0 0.0 0.00 0.00 0.00 79 1019.5
20260906071003 16 0 0.0 0.0 0.00 0.00 0.00 79 1019.6
20260906070524 16 0 0.0 0.0 0.00 0.00 0.00 79 1019.6
20260906070003 16 0 0.0 0.0 0.00 0.00 0.00 79 1019.4
20260906065503 16 0 0.0 0.0 0.00 0.00 0.00 79 1019.5
20260906065024 16 79 0.0 1.6 0.00 0.00 0.00 78 1019.6
20260906064503 17 79 0.0 1.6 0.00 0.00 0.00 78 1019.5
20260906064003 17 79 0.0 1.6 0.00 0.00 0.00 78 1019.5
20260906063503 17 73 0.0 1.6 0.00 0.00 0.00 78 1019.6
20260906063003 17 0 0.0 0.0 0.00 0.00 0.00 77 1019.6
20260906062503 17 74 0.0 1.6 0.00 0.00 0.00 77 1019.6
20260906062003 17 74 0.0 1.6 0.00 0.00 0.00 77 1019.6
20260906061503 17 73 0.0 1.6 0.00 0.00 0.00 76 1019.7
20260906061024 17 0 0.0 0.0 0.00 0.00 0.00 76 1019.6
20260906060503 17 0 0.0 0.0 0.00 0.00 0.00 76 1019.6
20260906060003 17 55 0.0 3.2 0.00 0.00 0.00 76 1019.5
20260906055524 17 97 0.0 3.2 0.00 0.00 0.00 76 1019.5
20260906055003 17 109 0.0 3.2 0.00 0.00 0.00 76 1019.5
20260906054503 17 94 0.0 3.2 0.00 0.00 0.00 76 1019.5
20260906054003 17 87 0.0 1.6 0.00 0.00 0.00 75 1019.5
20260906053503 17 89 0.0 1.6 0.00 0.00 0.00 76 1019.5
20260906053003 18 90 0.0 9.7 0.00 0.00 0.00 75 1019.4
20260906052503 18 89 0.0 9.7 0.00 0.00 0.00 75 1019.3
20260906052003 18 87 0.0 3.2 0.00 0.00 0.00 75 1019.3
20260906051503 18 88 0.0 3.2 0.00 0.00 0.00 75 1019.2
20260906051003 18 89 0.0 1.6 0.00 0.00 0.00 75 1019.3
20260906050503 18 87 0.0 3.2 0.00 0.00 0.00 75 1019.2
20260906050003 18 3 0.0 4.8 0.00 0.00 0.00 75 1019.2
20260906045503 18 352 0.0 4.8 0.00 0.00 0.00 74 1019.2
20260906045003 18 109 0.0 3.2 0.00 0.00 0.00 74 1019.1
20260906044524 18 89 1.6 9.7 0.00 0.00 0.00 74 1019.1
20260906044003 18 80 1.6 9.7 0.00 0.00 0.00 75 1019.0
20260906043503 19 90 1.6 11.3 0.00 0.00 0.00 74 1018.9
20260906043003 19 99 1.6 11.3 0.00 0.00 0.00 75 1018.7
20260906042503 19 95 0.0 3.2 0.00 0.00 0.00 75 1018.6
20260906042003 19 115 0.0 8.0 0.00 0.00 0.00 74 1018.6
20260906041503 19 100 1.6 8.0 0.00 0.00 0.00 74 1018.5
20260906041003 19 114 1.6 9.7 0.00 0.00 0.00 74 1018.5
20260906040503 20 111 1.6 9.7 0.00 0.00 0.00 73 1018.6
20260906040003 20 95 1.6 6.4 0.00 0.00 0.00 74 1018.6
20260906035524 20 117 1.6 11.3 0.00 0.00 0.00 74 1018.5
20260906035003 20 107 1.6 11.3 0.00 0.00 0.00 74 1018.4
20260906034503 20 93 1.6 9.7 0.00 0.00 0.00 74 1018.4
20260906034003 20 98 1.6 9.7 0.00 0.00 0.00 74 1018.4
20260906033503 20 113 1.6 6.4 0.00 0.00 0.00 74 1018.3
20260906033024 20 125 1.6 4.8 0.00 0.00 0.00 74 1018.3
20260906032503 20 108 0.0 3.2 0.00 0.00 0.00 74 1018.4
20260906032003 20 105 1.6 9.7 0.00 0.00 0.00 74 1018.4
20260906031503 20 110 1.6 9.7 0.00 0.00 0.00 74 1018.4
20260906031024 20 104 1.6 9.7 0.00 0.00 0.00 74 1018.4
20260906030503 20 65 1.6 3.2 0.00 0.00 0.00 74 1018.4
20260906030003 20 42 0.0 3.2 0.00 0.00 0.00 74 1018.4
20260906025503 20 31 0.0 3.2 0.00 0.00 0.00 73 1018.3
20260906025003 20 90 0.0 1.6 0.00 0.00 0.00 73 1018.2
20260906024503 21 0 0.0 0.0 0.00 0.00 0.00 73 1018.2
20260906024003 21 0 0.0 0.0 0.00 0.00 0.00 73 1018.2
20260906023524 21 0 0.0 0.0 0.00 0.00 0.00 72 1018.1
20260906023003 21 0 0.0 0.0 0.00 0.00 0.00 72 1018.1
20260906022503 21 0 0.0 0.0 0.00 0.00 0.00 72 1018.0
20260906022003 21 0 0.0 0.0 0.00 0.00 0.00 72 1018.1
20260906021503 21 96 0.0 1.6 0.00 0.00 0.00 71 1018.0
20260906021024 21 96 0.0 3.2 0.00 0.00 0.00 71 1017.9
20260906020524 21 97 0.0 3.2 0.00 0.00 0.00 71 1017.9
20260906020024 22 99 0.0 4.8 0.00 0.00 0.00 71 1017.8
20260906015524 22 111 0.0 4.8 0.00 0.00 0.00 71 1017.9
20260906015004 22 121 0.0 4.8 0.00 0.00 0.00 70 1017.8
20260906014503 22 0 0.0 0.0 0.00 0.00 0.00 70 1017.7
20260906014003 22 88 0.0 1.6 0.00 0.00 0.00 70 1017.8
20260906013503 22 96 0.0 9.7 0.00 0.00 0.00 70 1017.6
20260906013003 22 98 0.0 9.7 0.00 0.00 0.00 70 1017.5
20260906012503 22 97 0.0 4.8 0.00 0.00 0.00 70 1017.4
20260906012003 23 0 0.0 0.0 0.00 0.00 0.00 71 1017.4
20260906011503 23 0 0.0 0.0 0.00 0.00 0.00 71 1017.3
20260906011003 23 76 0.0 1.6 0.00 0.00 0.00 72 1017.3
20260906010503 23 83 1.6 3.2 0.00 0.00 0.00 72 1017.2
20260906010003 23 84 1.6 6.4 0.00 0.00 0.00 72 1017.1
20260906005524 23 55 1.6 6.4 0.00 0.00 0.00 72 1017.1
20260906005024 23 47 0.0 4.8 0.00 0.00 0.00 73 1017.1
20260906004524 23 84 0.0 4.8 0.00 0.00 0.00 73 1017.1
20260906004003 23 52 0.0 3.2 0.00 0.00 0.00 73 1017.0
20260906003524 23 53 0.0 3.2 0.00 0.00 0.00 73 1017.0
20260906003024 23 53 0.0 1.6 0.00 0.00 0.00 73 1017.1
20260906002503 23 0 0.0 0.0 0.00 0.00 0.00 73 1017.1
20260906002003 23 0 0.0 0.0 0.00 0.00 0.00 73 1017.1
20260906001524 24 0 0.0 0.0 0.00 0.00 0.00 72 1017.1
20260906001003 24 0 0.0 0.0 0.00 0.00 0.00 71 1017.1
20260906000524 24 0 0.0 0.0 0.00 0.00 0.00 71 1017.0
20260906000003 24 57 0.0 1.6 0.00 0.00 0.00 70 1017.0
20260905235503 24 57 0.0 1.6 0.00 0.00 0.00 70 1017.0
20260905235003 25 58 0.0 1.6 0.00 0.00 0.00 69 1017.0
20260905234503 25 58 0.0 3.2 0.00 0.00 0.00 69 1017.0
20260905234024 25 58 0.0 3.2 0.00 0.00 0.00 69 1017.0
20260905233524 25 67 0.0 3.2 0.00 0.00 0.00 69 1017.0
20260905233024 25 53 0.0 4.8 0.00 0.00 0.00 68 1017.0
20260905232503 25 41 1.6 4.8 0.00 0.00 0.00 67 1016.9
20260905232003 26 42 1.6 6.4 0.00 0.00 0.00 67 1016.9
20260905231503 26 45 1.6 6.4 0.00 0.00 0.00 67 1016.9
20260905231024 26 55 0.0 3.2 0.00 0.00 0.00 67 1017.0
20260905230524 26 56 0.0 3.2 0.00 0.00 0.00 66 1016.9
20260905230003 26 0 0.0 0.0 0.00 0.00 0.00 66 1017.0
20260905225503 26 0 0.0 0.0 0.00 0.00 0.00 67 1016.9
20260905225003 26 0 0.0 0.0 0.00 0.00 0.00 65 1016.8
20260905224503 26 0 0.0 0.0 0.00 0.00 0.00 65 1017.0
20260905224003 26 103 0.0 3.2 0.00 0.00 0.00 66 1017.0
20260905223524 26 92 1.6 4.8 0.00 0.00 0.00 65 1016.9
20260905223024 26 56 1.6 6.4 0.00 0.00 0.00 65 1016.9
20260905222503 26 30 1.6 8.0 0.00 0.00 0.00 66 1016.9
20260905222003 26 35 1.6 8.0 0.00 0.00 0.00 66 1016.8
20260905221503 26 47 1.6 4.8 0.00 0.00 0.00 66 1016.7
20260905221003 26 44 1.6 9.7 0.00 0.00 0.00 66 1016.6
20260905220503 26 41 1.6 9.7 0.00 0.00 0.00 66 1016.5
20260905220003 26 67 1.6 6.4 0.00 0.00 0.00 67 1016.5
20260905215524 26 102 1.6 6.4 0.00 0.00 0.00 68 1016.3
20260905215003 26 80 1.6 8.0 0.00 0.00 0.00 68 1016.2
20260905214503 26 77 1.6 8.0 0.00 0.00 0.00 70 1016.3
20260905214003 25 74 1.6 6.4 0.00 0.00 0.00 72 1016.4
20260905213524 25 41 1.6 6.4 0.00 0.00 0.00 73 1016.4
20260905213003 25 42 3.2 8.0 0.00 0.00 0.00 72 1016.4
20260905212503 25 52 3.2 8.0 0.00 0.00 0.00 72 1016.4
20260905212024 25 76 1.6 6.4 0.00 0.00 0.00 73 1016.5
20260905211503 25 77 1.6 4.8 0.00 0.00 0.00 73 1016.3
20260905211024 25 59 1.6 4.8 0.00 0.00 0.00 74 1016.3
20260905210503 25 48 1.6 4.8 0.00 0.00 0.00 75 1016.3
20260905210003 24 38 3.2 9.7 0.00 0.00 0.00 75 1016.3
20260905205524 24 34 3.2 11.3 0.00 0.00 0.00 76 1016.3
20260905205003 24 42 1.6 11.3 0.00 0.00 0.00 77 1016.3
20260905204503 24 32 1.6 8.0 0.00 0.00 0.00 78 1016.3
20260905204024 24 31 1.6 8.0 0.00 0.00 0.00 79 1016.4
20260905203524 23 49 1.6 6.4 0.00 0.00 0.00 79 1016.4
20260905203024 23 48 1.6 9.7 0.00 0.00 0.00 80 1016.5
20260905202524 23 49 1.6 9.7 0.00 0.00 0.00 81 1016.5
20260905202003 23 54 1.6 11.3 0.00 0.00 0.00 82 1016.5
20260905201524 22 46 1.6 11.3 0.00 0.00 0.00 83 1016.6
20260905201024 22 29 1.6 11.3 0.00 0.00 0.00 85 1016.6
20260905200503 22 16 3.2 11.3 0.00 0.00 0.00 86 1016.6
20260905200003 22 13 1.6 8.0 0.00 0.00 0.00 86 1016.6
20260905195503 22 27 1.6 6.4 0.00 0.00 0.00 87 1016.6
20260905195004 22 44 1.6 3.2 0.00 0.00 0.00 87 1016.6
20260905194503 22 44 0.0 3.2 0.00 0.00 0.00 87 1016.7
20260905194003 22 0 0.0 0.0 0.00 0.00 0.00 87 1016.8
20260905193503 22 44 0.0 1.6 0.00 0.00 0.00 87 1017.0
20260905193003 21 44 0.0 3.2 0.00 0.00 0.00 87 1017.0
20260905192503 21 46 1.6 4.8 0.00 0.00 0.00 87 1017.0
20260905192003 21 49 1.6 4.8 0.00 0.00 0.00 87 1017.1
20260905191503 21 48 1.6 8.0 0.00 0.00 0.00 87 1017.1
20260905191003 21 49 1.6 8.0 0.00 0.00 0.00 87 1017.0
20260905190503 21 36 1.6 8.0 0.00 0.00 0.00 87 1017.1
20260905190003 21 32 1.6 8.0 0.00 0.00 0.00 87 1017.2
20260905185503 21 31 1.6 8.0 0.00 0.00 0.00 87 1017.2
20260905185024 21 28 1.6 6.4 0.00 0.00 0.00 87 1017.3
20260905184503 21 25 3.2 8.0 0.00 0.00 0.00 87 1017.3
20260905184003 21 28 3.2 9.7 0.00 0.00 0.00 87 1017.3
20260905183503 21 32 3.2 9.7 0.00 0.00 0.00 87 1017.4
20260905183003 21 30 1.6 4.8 0.00 0.00 0.00 87 1017.4
20260905182503 21 19 1.6 4.8 0.00 0.00 0.00 87 1017.4
20260905182024 21 20 1.6 6.4 0.00 0.00 0.00 86 1017.4
20260905181503 21 28 1.6 6.4 0.00 0.00 0.00 86 1017.3
20260905181003 21 50 1.6 6.4 0.00 0.00 0.00 86 1017.3
20260905180503 21 89 1.6 9.7 0.00 0.00 0.00 86 1017.3
20260905180003 21 93 1.6 9.7 0.00 0.00 0.00 86 1017.3
20260905175503 21 61 1.6 4.8 0.00 0.00 0.00 86 1017.3
20260905175024 21 80 1.6 4.8 0.00 0.00 0.00 86 1017.2
20260905174503 21 84 1.6 6.4 0.00 0.00 0.00 86 1017.2
20260905174003 21 76 1.6 9.7 0.00 0.00 0.00 86 1017.2
20260905173503 21 89 1.6 9.7 0.00 0.00 0.00 85 1017.1
20260905173003 21 108 1.6 8.0 0.00 0.00 0.00 85 1017.1
20260905172503 21 98 1.6 14.5 0.00 0.00 0.00 85 1017.1
20260905172003 21 75 1.6 14.5 0.00 0.00 0.00 85 1017.1
20260905171503 21 59 1.6 6.4 0.00 0.00 0.00 85 1017.2
20260905171024 21 86 1.6 11.3 0.00 0.00 0.00 85 1017.0
20260905170503 21 73 1.6 11.3 0.00 0.00 0.00 85 1017.1
20260905170003 21 67 1.6 6.4 0.00 0.00 0.00 85 1017.0
20260905165503 21 92 1.6 6.4 0.00 0.00 0.00 85 1017.0
20260905165024 21 95 0.0 6.4 0.00 0.00 0.00 85 1017.1
20260905164503 21 85 0.0 4.8 0.00 0.00 0.00 84 1017.1
20260905164024 21 45 1.6 6.4 0.00 0.00 0.00 84 1017.2
20260905163503 21 42 1.6 6.4 0.00 0.00 0.00 84 1017.2
20260905163003 21 50 1.6 8.0 0.00 0.00 0.00 83 1017.2
20260905162503 21 42 3.2 8.0 0.00 0.00 0.00 83 1017.2
20260905162024 21 55 3.2 11.3 0.00 0.00 0.00 83 1017.1
20260905161524 21 88 1.6 11.3 0.00 0.00 0.00 83 1017.2
20260905161003 21 147 0.0 6.4 0.00 0.03 0.00 83 1017.1
20260905160503 21 140 1.6 6.4 0.00 0.03 0.00 83 1017.1
20260905160003 21 81 1.6 6.4 0.00 0.05 0.00 83 1017.2
20260905155503 21 95 1.6 6.4 0.00 0.05 0.00 83 1017.1
20260905155003 21 86 1.6 8.0 0.00 0.08 0.00 83 1017.0
20260905154524 21 84 1.6 8.0 0.00 0.08 0.00 82 1017.0
20260905154003 21 75 1.6 4.8 0.00 0.10 0.00 83 1017.0
20260905153503 21 49 1.6 8.0 0.00 0.10 0.00 82 1016.9
20260905153003 21 87 1.6 8.0 0.00 0.10 0.00 82 1016.9
20260905152503 21 92 1.6 6.4 0.00 0.10 0.00 82 1017.0
20260905152003 21 49 1.6 6.4 0.00 0.13 0.00 82 1016.9
20260905151503 21 39 1.6 6.4 0.00 0.13 0.00 82 1016.9
20260905151003 21 74 1.6 6.4 0.00 0.13 0.00 82 1016.8
20260905150503 21 103 1.6 9.7 0.00 0.13 0.00 82 1016.9
20260905150003 21 89 1.6 9.7 0.00 0.13 0.00 82 1016.8
20260905145503 21 68 3.2 11.3 0.00 0.13 0.00 82 1016.7
20260905145024 21 78 3.2 11.3 0.00 0.13 0.00 82 1016.6
20260905144503 21 86 3.2 9.7 0.00 0.13 0.00 82 1016.6
20260905144003 21 62 3.2 9.7 0.00 0.13 0.00 82 1016.5
20260905143503 21 47 1.6 9.7 0.00 0.15 0.00 83 1016.4
20260905143003 21 105 0.0 4.8 0.00 0.15 0.00 83 1016.5
20260905142524 21 110 1.6 11.3 0.00 0.15 0.00 84 1016.5
20260905142024 21 93 1.6 11.3 0.00 0.15 0.00 84 1016.5
20260905141503 21 75 3.2 9.7 0.00 0.15 0.00 84 1016.6
20260905141003 21 78 3.2 12.9 0.00 0.15 0.00 85 1016.4
20260905140503 21 89 1.6 12.9 0.00 0.15 0.00 85 1016.3
20260905140003 20 106 1.6 6.4 0.00 0.15 0.00 86 1016.3
20260905135503 20 97 1.6 6.4 0.00 0.15 0.00 86 1016.1
20260905135003 20 89 3.2 9.7 0.00 0.15 0.00 86 1016.1
20260905134503 20 99 3.2 9.7 0.00 0.15 0.00 87 1016.2
20260905134003 20 98 1.6 11.3 0.00 0.15 0.00 87 1016.3
20260905133503 20 84 3.2 11.3 0.00 0.18 0.00 88 1016.3
20260905133003 20 88 3.2 9.7 0.00 0.18 0.00 88 1016.3
20260905132503 20 71 1.6 6.4 0.00 0.18 0.00 88 1016.4
20260905132003 20 53 3.2 11.3 0.00 0.18 0.00 89 1016.2
20260905131524 20 72 3.2 11.3 0.00 0.18 0.00 89 1016.2
20260905131003 20 99 3.2 6.4 0.00 0.20 0.00 89 1016.2
20260905130503 20 83 3.2 6.4 0.00 0.23 0.00 89 1016.1
20260905130003 20 54 1.6 6.4 0.00 0.28 0.00 90 1016.1
20260905125503 20 42 1.6 6.4 0.00 0.38 0.00 90 1016.1
20260905125003 20 37 1.6 9.7 0.00 0.46 0.00 90 1016.1
20260905124503 20 59 3.2 9.7 0.00 0.56 0.00 90 1015.9
20260905124003 20 61 3.2 9.7 0.00 0.64 0.00 90 1015.8
20260905123503 20 69 1.6 9.7 0.00 0.71 0.00 90 1015.7
20260905123003 20 90 1.6 6.4 0.00 0.79 0.00 90 1015.7
20260905122503 20 61 1.6 9.7 0.00 0.84 0.00 91 1015.7
20260905122003 20 75 1.6 9.7 0.00 0.86 0.00 91 1015.6